| time (UTC) | temp F | wind direction | speed MPH | gust MPH | rain 1hr in | rain 24hr in | rain mn in | humidity % | barometer mb |
| 20260905174933 | 68 | 323 | 3.0 | 7.0 | 0.00 | 0.00 | 0.00 | 70 | 1015.1 |
| 20260905174418 | 68 | 259 | 2.0 | 4.0 | 0.00 | 0.00 | 0.00 | 71 | 1015.2 |
| 20260905173921 | 67 | 339 | 2.0 | 5.0 | 0.00 | 0.00 | 0.00 | 72 | 1015.1 |
| 20260905173424 | 66 | 333 | 2.0 | 6.0 | 0.00 | 0.00 | 0.00 | 72 | 1015.1 |
| 20260905172921 | 66 | 308 | 4.0 | 6.0 | 0.00 | 0.00 | 0.00 | 71 | 1015.1 |
| 20260905172426 | 67 | 360 | 2.0 | 6.0 | 0.00 | 0.00 | 0.00 | 72 | 1015.1 |
| 20260905171930 | 66 | 276 | 4.0 | 7.0 | 0.00 | 0.00 | 0.00 | 72 | 1014.9 |
| 20260905171436 | 67 | 329 | 3.0 | 7.0 | 0.00 | 0.00 | 0.00 | 72 | 1015.0 |
| 20260905170942 | 66 | 151 | 3.0 | 7.0 | 0.00 | 0.00 | 0.00 | 72 | 1015.0 |
| 20260905170429 | 67 | 249 | 4.0 | 6.0 | 0.00 | 0.00 | 0.00 | 72 | 1014.9 |
| 20260905165934 | 67 | 257 | 3.0 | 5.0 | 0.00 | 0.00 | 0.00 | 72 | 1014.9 |
| 20260905165434 | 67 | 151 | 2.0 | 4.0 | 0.00 | 0.00 | 0.00 | 72 | 1014.8 |
| 20260905164919 | 66 | 95 | 3.0 | 4.0 | 0.00 | 0.00 | 0.00 | 73 | 1014.8 |
| 20260905164424 | 66 | 88 | 2.0 | 4.0 | 0.00 | 0.00 | 0.00 | 73 | 1014.8 |
| 20260905163930 | 65 | 352 | 2.0 | 4.0 | 0.00 | 0.00 | 0.00 | 74 | 1014.8 |
| 20260905163435 | 65 | 151 | 2.0 | 5.0 | 0.00 | 0.00 | 0.00 | 75 | 1014.7 |
| 20260905162920 | 64 | 151 | 2.0 | 5.0 | 0.00 | 0.00 | 0.00 | 75 | 1014.7 |
| 20260905162428 | 64 | 207 | 1.0 | 4.0 | 0.00 | 0.00 | 0.00 | 76 | 1014.7 |
| 20260905161932 | 64 | 202 | 2.0 | 4.0 | 0.00 | 0.00 | 0.00 | 76 | 1014.6 |
| 20260905161449 | 64 | 222 | 2.0 | 4.0 | 0.00 | 0.00 | 0.00 | 78 | 1014.7 |
| 20260905160933 | 64 | 78 | 2.0 | 3.0 | 0.00 | 0.00 | 0.00 | 80 | 1014.6 |
| 20260905160420 | 63 | 55 | 2.0 | 4.0 | 0.00 | 0.00 | 0.00 | 81 | 1014.6 |
| 20260905155925 | 63 | 156 | 2.0 | 4.0 | 0.00 | 0.00 | 0.00 | 82 | 1014.6 |
| 20260905155430 | 62 | 212 | 2.0 | 5.0 | 0.00 | 0.00 | 0.00 | 83 | 1014.6 |
| 20260905154936 | 62 | 151 | 3.0 | 5.0 | 0.00 | 0.00 | 0.00 | 84 | 1014.6 |
| 20260905154421 | 61 | 177 | 2.0 | 4.0 | 0.00 | 0.00 | 0.00 | 84 | 1014.8 |
| 20260905153921 | 61 | 212 | 2.0 | 4.0 | 0.00 | 0.00 | 0.00 | 85 | 1014.8 |
| 20260905153427 | 61 | 177 | 2.0 | 5.0 | 0.00 | 0.00 | 0.00 | 85 | 1014.9 |
| 20260905152931 | 61 | 194 | 3.0 | 5.0 | 0.00 | 0.00 | 0.00 | 85 | 1014.8 |
| 20260905152433 | 61 | 228 | 2.0 | 5.0 | 0.00 | 0.00 | 0.00 | 85 | 1014.9 |
| 20260905151938 | 61 | 222 | 2.0 | 4.0 | 0.00 | 0.00 | 0.00 | 86 | 1014.8 |
| 20260905151452 | 60 | 107 | 1.0 | 4.0 | 0.00 | 0.00 | 0.00 | 86 | 1014.8 |
| 20260905150932 | 61 | 214 | 1.0 | 3.0 | 0.00 | 0.00 | 0.00 | 86 | 1014.8 |
| 20260905150434 | 60 | 158 | 1.0 | 3.0 | 0.00 | 0.00 | 0.00 | 87 | 1014.7 |
| 20260905145936 | 60 | 200 | 1.0 | 2.0 | 0.00 | 0.00 | 0.00 | 87 | 1014.7 |
| 20260905145419 | 59 | 123 | 1.0 | 1.0 | 0.00 | 0.00 | 0.00 | 87 | 1014.7 |
| 20260905144943 | 59 | 134 | 0.0 | 2.0 | 0.00 | 0.00 | 0.00 | 87 | 1014.6 |
| 20260905144427 | 59 | 62 | 1.0 | 2.0 | 0.00 | 0.00 | 0.00 | 87 | 1014.6 |
| 20260905143930 | 59 | 88 | 2.0 | 2.0 | 0.00 | 0.00 | 0.00 | 87 | 1014.7 |
| 20260905143430 | 58 | 97 | 1.0 | 2.0 | 0.00 | 0.00 | 0.00 | 87 | 1014.6 |
| 20260905142933 | 58 | 151 | 1.0 | 3.0 | 0.00 | 0.00 | 0.00 | 87 | 1014.6 |
| 20260905142449 | 58 | 208 | 2.0 | 3.0 | 0.00 | 0.00 | 0.00 | 87 | 1014.6 |
| 20260905141933 | 57 | 194 | 2.0 | 4.0 | 0.00 | 0.00 | 0.00 | 87 | 1014.6 |
| 20260905141439 | 57 | 177 | 2.0 | 5.0 | 0.00 | 0.00 | 0.00 | 87 | 1014.5 |
| 20260905140953 | 57 | 201 | 3.0 | 5.0 | 0.00 | 0.00 | 0.00 | 87 | 1014.5 |
| 20260905140418 | 57 | 208 | 3.0 | 5.0 | 0.00 | 0.00 | 0.00 | 87 | 1014.4 |
| 20260905135936 | 57 | 192 | 2.0 | 4.0 | 0.00 | 0.00 | 0.00 | 87 | 1014.4 |
| 20260905135422 | 57 | 205 | 2.0 | 4.0 | 0.00 | 0.00 | 0.00 | 87 | 1014.3 |
| 20260905134926 | 57 | 196 | 2.0 | 4.0 | 0.00 | 0.00 | 0.00 | 87 | 1014.2 |
| 20260905134433 | 57 | 192 | 2.0 | 4.0 | 0.00 | 0.00 | 0.00 | 87 | 1014.2 |
| 20260905133940 | 57 | 192 | 2.0 | 3.0 | 0.00 | 0.00 | 0.00 | 87 | 1014.2 |
| 20260905133424 | 57 | 205 | 1.0 | 2.0 | 0.00 | 0.00 | 0.00 | 87 | 1014.1 |
| 20260905132928 | 57 | 45 | 0.0 | 2.0 | 0.00 | 0.00 | 0.00 | 87 | 1014.1 |
| 20260905132436 | 57 | 196 | 1.0 | 4.0 | 0.00 | 0.00 | 0.00 | 87 | 1014.1 |
| 20260905131951 | 57 | 185 | 2.0 | 4.0 | 0.00 | 0.00 | 0.00 | 86 | 1014.1 |
| 20260905131434 | 57 | 177 | 1.0 | 4.0 | 0.00 | 0.00 | 0.00 | 86 | 1014.1 |
| 20260905130931 | 57 | 208 | 2.0 | 4.0 | 0.00 | 0.00 | 0.00 | 86 | 1014.1 |
| 20260905130418 | 57 | 193 | 2.0 | 4.0 | 0.00 | 0.00 | 0.00 | 86 | 1014.2 |
| 20260905125921 | 57 | 200 | 2.0 | 4.0 | 0.00 | 0.00 | 0.00 | 86 | 1014.2 |
| 20260905125424 | 57 | 222 | 0.0 | 2.0 | 0.00 | 0.00 | 0.00 | 86 | 1014.2 |
| 20260905124928 | 57 | 88 | 1.0 | 2.0 | 0.00 | 0.00 | 0.00 | 86 | 1014.3 |
| 20260905124434 | 57 | 222 | 1.0 | 2.0 | 0.00 | 0.00 | 0.00 | 86 | 1014.3 |
| 20260905123921 | 57 | 88 | 1.0 | 2.0 | 0.00 | 0.00 | 0.00 | 86 | 1014.3 |
| 20260905123446 | 57 | 116 | 1.0 | 3.0 | 0.00 | 0.00 | 0.00 | 86 | 1014.2 |
| 20260905122931 | 58 | 192 | 1.0 | 3.0 | 0.00 | 0.00 | 0.00 | 86 | 1014.2 |
| 20260905122436 | 58 | 201 | 2.0 | 3.0 | 0.00 | 0.00 | 0.00 | 86 | 1014.2 |
| 20260905121938 | 57 | 232 | 2.0 | 3.0 | 0.00 | 0.00 | 0.00 | 86 | 1014.2 |
| 20260905121453 | 58 | 210 | 2.0 | 3.0 | 0.00 | 0.00 | 0.00 | 86 | 1014.3 |
| 20260905120935 | 58 | 187 | 2.0 | 3.0 | 0.00 | 0.00 | 0.00 | 85 | 1014.3 |
| 20260905120420 | 58 | 218 | 2.0 | 2.0 | 0.00 | 0.00 | 0.00 | 85 | 1014.2 |
| 20260905115955 | 58 | 222 | 1.0 | 3.0 | 0.00 | 0.00 | 0.00 | 86 | 1014.3 |
| 20260905115440 | 58 | 120 | 2.0 | 3.0 | 0.00 | 0.00 | 0.00 | 86 | 1014.2 |
| 20260905114954 | 58 | 144 | 2.0 | 3.0 | 0.00 | 0.00 | 0.00 | 86 | 1014.3 |
| 20260905114446 | 58 | 125 | 2.0 | 3.0 | 0.00 | 0.00 | 0.00 | 85 | 1014.3 |
| 20260905113931 | 58 | 147 | 2.0 | 3.0 | 0.00 | 0.00 | 0.00 | 85 | 1014.3 |
| 20260905113419 | 58 | 134 | 3.0 | 4.0 | 0.00 | 0.00 | 0.00 | 85 | 1014.3 |
| 20260905112924 | 58 | 141 | 2.0 | 4.0 | 0.00 | 0.00 | 0.00 | 85 | 1014.3 |
| 20260905112431 | 58 | 155 | 2.0 | 3.0 | 0.00 | 0.00 | 0.00 | 85 | 1014.3 |
| 20260905111917 | 59 | 130 | 2.0 | 3.0 | 0.00 | 0.00 | 0.00 | 85 | 1014.4 |
| 20260905111425 | 59 | 45 | 1.0 | 3.0 | 0.00 | 0.00 | 0.00 | 85 | 1014.4 |
| 20260905110947 | 59 | 88 | 1.0 | 5.0 | 0.00 | 0.00 | 0.00 | 85 | 1014.4 |
| 20260905110434 | 59 | 218 | 1.0 | 5.0 | 0.00 | 0.00 | 0.00 | 85 | 1014.3 |
| 20260905105917 | 59 | 228 | 2.0 | 7.0 | 0.00 | 0.00 | 0.00 | 85 | 1014.3 |
| 20260905105423 | 59 | 247 | 4.0 | 7.0 | 0.00 | 0.00 | 0.00 | 85 | 1014.4 |
| 20260905104929 | 59 | 254 | 3.0 | 7.0 | 0.00 | 0.00 | 0.00 | 85 | 1014.3 |
| 20260905104418 | 59 | 258 | 2.0 | 3.0 | 0.00 | 0.00 | 0.00 | 85 | 1014.3 |
| 20260905103924 | 59 | 151 | 1.0 | 4.0 | 0.00 | 0.00 | 0.00 | 85 | 1014.3 |
| 20260905103428 | 59 | 116 | 3.0 | 4.0 | 0.00 | 0.00 | 0.00 | 85 | 1014.3 |
| 20260905102934 | 59 | 151 | 1.0 | 4.0 | 0.00 | 0.00 | 0.00 | 84 | 1014.3 |
| 20260905102419 | 59 | 339 | 2.0 | 4.0 | 0.00 | 0.00 | 0.00 | 84 | 1014.3 |
| 20260905101927 | 59 | 45 | 1.0 | 5.0 | 0.00 | 0.00 | 0.00 | 85 | 1014.4 |
| 20260905101432 | 59 | 285 | 2.0 | 8.0 | 0.00 | 0.00 | 0.00 | 85 | 1014.4 |
| 20260905100941 | 59 | 282 | 3.0 | 8.0 | 0.00 | 0.00 | 0.00 | 85 | 1014.4 |
| 20260905100458 | 60 | 214 | 2.0 | 9.0 | 0.00 | 0.00 | 0.00 | 84 | 1014.3 |
| 20260905095926 | 60 | 257 | 4.0 | 10.0 | 0.00 | 0.00 | 0.00 | 84 | 1014.3 |
| 20260905095431 | 60 | 273 | 5.0 | 10.0 | 0.00 | 0.00 | 0.00 | 84 | 1014.3 |
| 20260905094921 | 60 | 251 | 5.0 | 9.0 | 0.00 | 0.00 | 0.00 | 84 | 1014.3 |
| 20260905094427 | 60 | 282 | 5.0 | 9.0 | 0.00 | 0.00 | 0.00 | 84 | 1014.3 |
| 20260905093935 | 60 | 268 | 5.0 | 12.0 | 0.00 | 0.00 | 0.00 | 84 | 1014.2 |
| 20260905093421 | 60 | 258 | 6.0 | 12.0 | 0.00 | 0.00 | 0.00 | 84 | 1014.2 |
| 20260905092927 | 60 | 301 | 5.0 | 10.0 | 0.00 | 0.00 | 0.00 | 84 | 1014.3 |
| 20260905092435 | 60 | 261 | 4.0 | 9.0 | 0.00 | 0.00 | 0.00 | 84 | 1014.3 |
| 20260905091937 | 60 | 237 | 4.0 | 10.0 | 0.00 | 0.00 | 0.00 | 84 | 1014.4 |
| 20260905091424 | 60 | 232 | 6.0 | 12.0 | 0.00 | 0.00 | 0.00 | 85 | 1014.4 |
| 20260905090931 | 60 | 273 | 6.0 | 14.0 | 0.00 | 0.00 | 0.00 | 85 | 1014.4 |
| 20260905090418 | 60 | 256 | 8.0 | 14.0 | 0.00 | 0.00 | 0.00 | 85 | 1014.5 |
| 20260905085922 | 60 | 292 | 8.0 | 14.0 | 0.00 | 0.00 | 0.00 | 86 | 1014.4 |
| 20260905085431 | 60 | 271 | 8.0 | 14.0 | 0.00 | 0.00 | 0.00 | 86 | 1014.5 |
| 20260905084939 | 60 | 217 | 8.0 | 14.0 | 0.00 | 0.00 | 0.00 | 86 | 1014.5 |
| 20260905084450 | 60 | 282 | 8.0 | 15.0 | 0.00 | 0.00 | 0.00 | 86 | 1014.5 |
| 20260905083918 | 60 | 292 | 8.0 | 15.0 | 0.00 | 0.00 | 0.00 | 85 | 1014.5 |
| 20260905083446 | 60 | 268 | 8.0 | 15.0 | 0.00 | 0.00 | 0.00 | 85 | 1014.6 |
| 20260905082931 | 60 | 270 | 9.0 | 15.0 | 0.00 | 0.00 | 0.00 | 85 | 1014.5 |
| 20260905082438 | 60 | 289 | 9.0 | 16.0 | 0.00 | 0.00 | 0.00 | 85 | 1014.6 |
| 20260905081953 | 60 | 280 | 9.0 | 16.0 | 0.00 | 0.00 | 0.00 | 85 | 1014.6 |
| 20260905081417 | 60 | 268 | 9.0 | 17.0 | 0.00 | 0.00 | 0.00 | 85 | 1014.5 |
| 20260905080921 | 60 | 292 | 10.0 | 17.0 | 0.00 | 0.00 | 0.00 | 85 | 1014.4 |
| 20260905080427 | 60 | 218 | 8.0 | 16.0 | 0.00 | 0.00 | 0.00 | 85 | 1014.5 |
| 20260905075930 | 60 | 252 | 10.0 | 16.0 | 0.00 | 0.00 | 0.00 | 85 | 1014.4 |
| 20260905075418 | 60 | 238 | 9.0 | 15.0 | 0.00 | 0.00 | 0.00 | 84 | 1014.4 |
| 20260905074926 | 60 | 294 | 9.0 | 15.0 | 0.00 | 0.00 | 0.00 | 84 | 1014.5 |
| 20260905074431 | 60 | 254 | 7.0 | 15.0 | 0.00 | 0.00 | 0.00 | 83 | 1014.4 |
| 20260905073937 | 60 | 256 | 7.0 | 14.0 | 0.00 | 0.00 | 0.00 | 83 | 1014.3 |
| 20260905073428 | 60 | 237 | 7.0 | 14.0 | 0.00 | 0.00 | 0.00 | 82 | 1014.3 |
| 20260905072931 | 60 | 268 | 6.0 | 10.0 | 0.00 | 0.00 | 0.00 | 82 | 1014.2 |
| 20260905072435 | 60 | 268 | 5.0 | 10.0 | 0.00 | 0.00 | 0.00 | 81 | 1014.3 |
| 20260905071924 | 60 | 279 | 6.0 | 11.0 | 0.00 | 0.00 | 0.00 | 81 | 1014.3 |
| 20260905071429 | 61 | 275 | 6.0 | 11.0 | 0.00 | 0.00 | 0.00 | 80 | 1014.3 |
| 20260905070936 | 61 | 256 | 5.0 | 13.0 | 0.00 | 0.00 | 0.00 | 80 | 1014.3 |
| 20260905070449 | 61 | 247 | 7.0 | 13.0 | 0.00 | 0.00 | 0.00 | 80 | 1014.2 |
| 20260905065945 | 61 | 278 | 8.0 | 15.0 | 0.00 | 0.00 | 0.00 | 80 | 1014.2 |
| 20260905065434 | 61 | 249 | 8.0 | 15.0 | 0.00 | 0.00 | 0.00 | 79 | 1014.2 |
| 20260905064950 | 61 | 270 | 8.0 | 13.0 | 0.00 | 0.00 | 0.00 | 79 | 1014.2 |
| 20260905064417 | 61 | 252 | 7.0 | 12.0 | 0.00 | 0.00 | 0.00 | 78 | 1014.3 |
| 20260905063943 | 61 | 289 | 7.0 | 14.0 | 0.00 | 0.00 | 0.00 | 78 | 1014.3 |
| 20260905063429 | 61 | 287 | 7.0 | 15.0 | 0.00 | 0.00 | 0.00 | 78 | 1014.3 |
| 20260905062916 | 61 | 268 | 7.0 | 16.0 | 0.00 | 0.00 | 0.00 | 78 | 1014.3 |
| 20260905062420 | 61 | 280 | 11.0 | 18.0 | 0.00 | 0.00 | 0.00 | 78 | 1014.3 |
| 20260905061958 | 61 | 278 | 10.0 | 18.0 | 0.00 | 0.00 | 0.00 | 78 | 1014.2 |
| 20260905061453 | 61 | 271 | 8.0 | 13.0 | 0.00 | 0.00 | 0.00 | 78 | 1014.3 |
| 20260905060920 | 61 | 281 | 7.0 | 14.0 | 0.00 | 0.00 | 0.00 | 78 | 1014.2 |
| 20260905060428 | 61 | 276 | 8.0 | 14.0 | 0.00 | 0.00 | 0.00 | 79 | 1014.3 |
| 20260905055933 | 61 | 277 | 8.0 | 13.0 | 0.00 | 0.00 | 0.00 | 79 | 1014.3 |
| 20260905055421 | 61 | 280 | 6.0 | 13.0 | 0.00 | 0.00 | 0.00 | 79 | 1014.4 |
| 20260905054922 | 61 | 261 | 8.0 | 16.0 | 0.00 | 0.00 | 0.00 | 79 | 1014.4 |
| 20260905054428 | 61 | 261 | 9.0 | 16.0 | 0.00 | 0.00 | 0.00 | 79 | 1014.4 |
| 20260905053932 | 61 | 263 | 6.0 | 14.0 | 0.00 | 0.00 | 0.00 | 79 | 1014.5 |
| 20260905053422 | 61 | 251 | 9.0 | 14.0 | 0.00 | 0.00 | 0.00 | 79 | 1014.5 |
| 20260905052929 | 61 | 268 | 7.0 | 13.0 | 0.00 | 0.00 | 0.00 | 79 | 1014.6 |
| 20260905052417 | 61 | 229 | 9.0 | 13.0 | 0.00 | 0.00 | 0.00 | 79 | 1014.6 |
| 20260905051922 | 61 | 257 | 7.0 | 14.0 | 0.00 | 0.00 | 0.00 | 79 | 1014.7 |
| 20260905051423 | 61 | 292 | 6.0 | 14.0 | 0.00 | 0.00 | 0.00 | 78 | 1014.7 |
| 20260905050931 | 61 | 279 | 7.0 | 14.0 | 0.00 | 0.00 | 0.00 | 78 | 1014.8 |
| 20260905050437 | 61 | 282 | 6.0 | 12.0 | 0.00 | 0.00 | 0.00 | 77 | 1014.8 |
| 20260905045954 | 61 | 250 | 6.0 | 13.0 | 0.00 | 0.01 | 0.00 | 76 | 1014.8 |
| 20260905045422 | 61 | 242 | 7.0 | 13.0 | 0.00 | 0.01 | 0.00 | 75 | 1014.7 |
| 20260905044957 | 61 | 277 | 7.0 | 13.0 | 0.00 | 0.01 | 0.00 | 75 | 1014.8 |
| 20260905044422 | 62 | 275 | 7.0 | 14.0 | 0.00 | 0.01 | 0.00 | 74 | 1014.7 |
| 20260905043925 | 62 | 284 | 9.0 | 14.0 | 0.00 | 0.01 | 0.00 | 74 | 1014.7 |
| 20260905043434 | 62 | 270 | 9.0 | 17.0 | 0.00 | 0.01 | 0.00 | 73 | 1014.6 |
| 20260905042918 | 62 | 256 | 10.0 | 17.0 | 0.00 | 0.01 | 0.00 | 73 | 1014.6 |
| 20260905042424 | 62 | 289 | 9.0 | 17.0 | 0.00 | 0.01 | 0.00 | 74 | 1014.6 |
| 20260905041930 | 62 | 275 | 9.0 | 15.0 | 0.00 | 0.01 | 0.00 | 74 | 1014.6 |
| 20260905041435 | 62 | 289 | 9.0 | 17.0 | 0.00 | 0.01 | 0.00 | 75 | 1014.6 |
| 20260905040923 | 62 | 259 | 9.0 | 16.0 | 0.00 | 0.01 | 0.00 | 76 | 1014.5 |
| 20260905040430 | 62 | 276 | 10.0 | 18.0 | 0.00 | 0.01 | 0.00 | 76 | 1014.5 |
| 20260905035930 | 62 | 283 | 10.0 | 18.0 | 0.00 | 0.02 | 0.00 | 76 | 1014.3 |
| 20260905035436 | 62 | 268 | 11.0 | 16.0 | 0.00 | 0.02 | 0.00 | 76 | 1014.3 |
| 20260905034922 | 62 | 289 | 9.0 | 18.0 | 0.00 | 0.02 | 0.00 | 76 | 1014.3 |
| 20260905034429 | 62 | 277 | 10.0 | 18.0 | 0.00 | 0.02 | 0.00 | 77 | 1014.3 |
| 20260905033935 | 62 | 280 | 9.0 | 17.0 | 0.00 | 0.02 | 0.00 | 78 | 1014.2 |
| 20260905033423 | 62 | 287 | 10.0 | 17.0 | 0.00 | 0.02 | 0.00 | 79 | 1014.1 |
| 20260905032949 | 62 | 301 | 10.0 | 18.0 | 0.00 | 0.02 | 0.00 | 80 | 1014.1 |
| 20260905032432 | 62 | 304 | 12.0 | 17.0 | 0.00 | 0.02 | 0.00 | 80 | 1014.1 |
| 20260905031935 | 62 | 270 | 11.0 | 18.0 | 0.00 | 0.02 | 0.00 | 80 | 1014.1 |
| 20260905031420 | 62 | 284 | 11.0 | 20.0 | 0.00 | 0.02 | 0.00 | 80 | 1014.1 |
| 20260905030959 | 62 | 287 | 11.0 | 21.0 | 0.00 | 0.02 | 0.00 | 80 | 1014.0 |
| 20260905030449 | 62 | 268 | 12.0 | 20.0 | 0.00 | 0.02 | 0.00 | 80 | 1014.1 |
| 20260905025937 | 62 | 251 | 12.0 | 20.0 | 0.00 | 0.02 | 0.00 | 80 | 1014.1 |
| 20260905025441 | 62 | 251 | 13.0 | 20.0 | 0.00 | 0.02 | 0.00 | 80 | 1014.0 |
| 20260905024927 | 62 | 258 | 13.0 | 20.0 | 0.00 | 0.02 | 0.00 | 80 | 1013.9 |
| 20260905024434 | 62 | 282 | 12.0 | 20.0 | 0.00 | 0.02 | 0.00 | 79 | 1013.9 |
| 20260905023921 | 62 | 290 | 11.0 | 22.0 | 0.00 | 0.02 | 0.00 | 79 | 1014.0 |
| 20260905023447 | 62 | 268 | 14.0 | 21.0 | 0.00 | 0.02 | 0.00 | 78 | 1013.9 |
| 20260905022931 | 62 | 283 | 14.0 | 19.0 | 0.00 | 0.02 | 0.00 | 78 | 1013.8 |
| 20260905022418 | 63 | 282 | 11.0 | 22.0 | 0.00 | 0.02 | 0.00 | 78 | 1013.9 |
| 20260905021940 | 63 | 287 | 12.0 | 22.0 | 0.00 | 0.02 | 0.00 | 78 | 1013.9 |
| 20260905021454 | 63 | 261 | 15.0 | 24.0 | 0.00 | 0.02 | 0.00 | 78 | 1013.8 |
| 20260905020951 | 63 | 301 | 13.0 | 24.0 | 0.00 | 0.02 | 0.00 | 77 | 1013.9 |
| 20260905020435 | 63 | 283 | 13.0 | 24.0 | 0.00 | 0.02 | 0.00 | 77 | 1013.9 |
| 20260905015920 | 63 | 268 | 15.0 | 23.0 | 0.00 | 0.02 | 0.00 | 76 | 1014.0 |
| 20260905015427 | 64 | 280 | 13.0 | 22.0 | 0.00 | 0.02 | 0.00 | 75 | 1013.9 |
| 20260905014929 | 64 | 270 | 15.0 | 22.0 | 0.00 | 0.02 | 0.00 | 74 | 1013.9 |
| 20260905014417 | 64 | 296 | 15.0 | 22.0 | 0.00 | 0.02 | 0.00 | 74 | 1014.0 |
| 20260905013923 | 64 | 284 | 13.0 | 22.0 | 0.00 | 0.02 | 0.00 | 74 | 1014.0 |
| 20260905013430 | 64 | 276 | 13.0 | 21.0 | 0.00 | 0.02 | 0.00 | 74 | 1014.0 |
| 20260905012916 | 64 | 264 | 14.0 | 21.0 | 0.00 | 0.02 | 0.00 | 74 | 1014.0 |
| 20260905012424 | 64 | 275 | 14.0 | 22.0 | 0.00 | 0.02 | 0.00 | 73 | 1014.1 |
| 20260905011934 | 65 | 273 | 12.0 | 22.0 | 0.00 | 0.02 | 0.00 | 73 | 1014.0 |
| 20260905011420 | 65 | 301 | 12.0 | 21.0 | 0.00 | 0.02 | 0.00 | 72 | 1014.0 |
| 20260905010944 | 65 | 263 | 11.0 | 18.0 | 0.00 | 0.02 | 0.00 | 72 | 1014.1 |
| 20260905010431 | 65 | 265 | 13.0 | 23.0 | 0.00 | 0.02 | 0.00 | 72 | 1014.0 |
| 20260905005935 | 65 | 256 | 13.0 | 26.0 | 0.00 | 0.02 | 0.00 | 72 | 1013.9 |
| 20260905005421 | 65 | 307 | 13.0 | 26.0 | 0.00 | 0.02 | 0.00 | 71 | 1013.9 |
| 20260905004928 | 66 | 294 | 13.0 | 24.0 | 0.00 | 0.02 | 0.00 | 71 | 1014.0 |
| 20260905004435 | 66 | 264 | 10.0 | 23.0 | 0.00 | 0.02 | 0.00 | 69 | 1014.0 |
| 20260905003921 | 65 | 263 | 16.0 | 26.0 | 0.00 | 0.02 | 0.00 | 69 | 1013.9 |
| 20260905003423 | 66 | 294 | 17.0 | 26.0 | 0.00 | 0.02 | 0.00 | 70 | 1013.9 |
| 20260905002929 | 66 | 313 | 12.0 | 24.0 | 0.00 | 0.02 | 0.00 | 70 | 1013.9 |
| 20260905002436 | 66 | 277 | 15.0 | 25.0 | 0.00 | 0.02 | 0.00 | 70 | 1013.8 |
| 20260905001940 | 66 | 307 | 14.0 | 23.0 | 0.00 | 0.02 | 0.00 | 70 | 1013.9 |
| 20260905001425 | 66 | 292 | 12.0 | 23.0 | 0.00 | 0.02 | 0.00 | 71 | 1013.9 |
| 20260905000930 | 66 | 288 | 13.0 | 22.0 | 0.00 | 0.02 | 0.00 | 71 | 1013.9 |
| 20260905000435 | 66 | 257 | 13.0 | 22.0 | 0.00 | 0.02 | 0.00 | 70 | 1014.0 |
| 20260904235923 | 66 | 264 | 12.0 | 23.0 | 0.00 | 0.02 | 0.00 | 69 | 1014.1 |
| 20260904235430 | 66 | 262 | 15.0 | 23.0 | 0.00 | 0.02 | 0.00 | 69 | 1014.1 |
| 20260904234937 | 66 | 289 | 13.0 | 21.0 | 0.00 | 0.02 | 0.00 | 69 | 1014.0 |
| 20260904234452 | 66 | 277 | 11.0 | 21.0 | 0.00 | 0.02 | 0.00 | 69 | 1014.1 |
| 20260904233936 | 66 | 268 | 14.0 | 22.0 | 0.00 | 0.02 | 0.00 | 69 | 1014.1 |
| 20260904233423 | 67 | 285 | 12.0 | 21.0 | 0.00 | 0.02 | 0.00 | 69 | 1014.1 |
| 20260904232927 | 67 | 258 | 13.0 | 21.0 | 0.00 | 0.02 | 0.00 | 69 | 1014.1 |
| 20260904232428 | 67 | 270 | 10.0 | 26.0 | 0.00 | 0.02 | 0.00 | 69 | 1014.2 |
| 20260904231937 | 66 | 282 | 15.0 | 26.0 | 0.00 | 0.02 | 0.00 | 69 | 1014.1 |
| 20260904231425 | 67 | 282 | 12.0 | 22.0 | 0.00 | 0.02 | 0.00 | 69 | 1014.1 |
| 20260904230931 | 67 | 285 | 11.0 | 24.0 | 0.00 | 0.02 | 0.00 | 68 | 1014.2 |
| 20260904230435 | 67 | 280 | 12.0 | 24.0 | 0.00 | 0.02 | 0.00 | 68 | 1014.2 |
| 20260904225919 | 67 | 282 | 12.0 | 23.0 | 0.00 | 0.02 | 0.00 | 69 | 1014.3 |
| 20260904225425 | 67 | 285 | 12.0 | 26.0 | 0.00 | 0.02 | 0.00 | 70 | 1014.4 |
| 20260904224932 | 66 | 292 | 16.0 | 24.0 | 0.00 | 0.02 | 0.00 | 69 | 1014.2 |
| 20260904224432 | 67 | 321 | 16.0 | 23.0 | 0.00 | 0.02 | 0.00 | 69 | 1014.2 |
| 20260904223940 | 67 | 273 | 13.0 | 22.0 | 0.00 | 0.02 | 0.00 | 69 | 1014.4 |
| 20260904223426 | 67 | 292 | 13.0 | 23.0 | 0.00 | 0.02 | 0.00 | 69 | 1014.4 |
| 20260904222933 | 66 | 277 | 15.0 | 26.0 | 0.00 | 0.02 | 0.00 | 69 | 1014.3 |
| 20260904222438 | 67 | 282 | 15.0 | 26.0 | 0.00 | 0.02 | 0.00 | 70 | 1014.5 |
| 20260904221953 | 67 | 287 | 15.0 | 25.0 | 0.00 | 0.02 | 0.00 | 70 | 1014.6 |
| 20260904221436 | 67 | 282 | 12.0 | 27.0 | 0.00 | 0.02 | 0.00 | 70 | 1014.6 |
| 20260904220932 | 67 | 270 | 19.0 | 27.0 | 0.00 | 0.02 | 0.00 | 69 | 1014.6 |
| 20260904220418 | 68 | 301 | 12.0 | 24.0 | 0.00 | 0.02 | 0.00 | 69 | 1014.5 |
| 20260904215924 | 67 | 285 | 15.0 | 24.0 | 0.00 | 0.02 | 0.00 | 68 | 1014.5 |
| 20260904215433 | 68 | 235 | 10.0 | 22.0 | 0.00 | 0.02 | 0.00 | 68 | 1014.5 |
| 20260904214918 | 68 | 226 | 12.0 | 21.0 | 0.00 | 0.02 | 0.00 | 68 | 1014.5 |
| 20260904214425 | 68 | 253 | 10.0 | 19.0 | 0.00 | 0.02 | 0.00 | 69 | 1014.6 |
| 20260904213932 | 68 | 261 | 10.0 | 19.0 | 0.00 | 0.02 | 0.00 | 69 | 1014.6 |
| 20260904213436 | 67 | 278 | 9.0 | 17.0 | 0.00 | 0.02 | 0.00 | 69 | 1014.5 |
| 20260904212920 | 67 | 301 | 8.0 | 18.0 | 0.00 | 0.02 | 0.00 | 70 | 1014.7 |
| 20260904212428 | 67 | 310 | 11.0 | 18.0 | 0.00 | 0.02 | 0.00 | 69 | 1014.6 |
| 20260904211936 | 67 | 299 | 8.0 | 16.0 | 0.00 | 0.02 | 0.00 | 70 | 1014.7 |
| 20260904211423 | 67 | 252 | 7.0 | 18.0 | 0.00 | 0.02 | 0.00 | 71 | 1014.7 |
| 20260904210930 | 66 | 209 | 9.0 | 18.0 | 0.00 | 0.02 | 0.00 | 71 | 1014.8 |
| 20260904210418 | 67 | 220 | 9.0 | 16.0 | 0.00 | 0.02 | 0.00 | 71 | 1014.8 |
| 20260904205923 | 67 | 235 | 9.0 | 19.0 | 0.00 | 0.02 | 0.00 | 71 | 1014.8 |
| 20260904205424 | 66 | 258 | 8.0 | 20.0 | 0.00 | 0.02 | 0.00 | 71 | 1014.8 |
| 20260904204930 | 67 | 265 | 11.0 | 20.0 | 0.00 | 0.02 | 0.00 | 71 | 1014.8 |
| 20260904204435 | 67 | 292 | 10.0 | 19.0 | 0.00 | 0.02 | 0.00 | 71 | 1014.8 |
| 20260904203919 | 67 | 236 | 7.0 | 20.0 | 0.00 | 0.02 | 0.00 | 71 | 1014.7 |
| 20260904203427 | 67 | 261 | 9.0 | 18.0 | 0.00 | 0.02 | 0.00 | 71 | 1014.7 |
| 20260904202929 | 67 | 274 | 10.0 | 18.0 | 0.00 | 0.02 | 0.00 | 70 | 1014.7 |
| 20260904202425 | 67 | 330 | 10.0 | 18.0 | 0.00 | 0.02 | 0.00 | 70 | 1014.6 |
| 20260904201955 | 67 | 278 | 8.0 | 15.0 | 0.00 | 0.02 | 0.00 | 71 | 1014.6 |
| 20260904201420 | 67 | 270 | 9.0 | 14.0 | 0.00 | 0.02 | 0.00 | 70 | 1014.7 |
| 20260904200925 | 67 | 310 | 7.0 | 15.0 | 0.00 | 0.02 | 0.00 | 71 | 1014.7 |
| 20260904200431 | 67 | 284 | 9.0 | 16.0 | 0.00 | 0.02 | 0.00 | 70 | 1014.6 |
| 20260904195937 | 67 | 316 | 7.0 | 16.0 | 0.00 | 0.02 | 0.00 | 71 | 1014.7 |
| 20260904195421 | 67 | 287 | 8.0 | 14.0 | 0.00 | 0.02 | 0.00 | 71 | 1014.7 |
| 20260904194928 | 67 | 248 | 8.0 | 14.0 | 0.00 | 0.02 | 0.00 | 71 | 1014.7 |
| 20260904194432 | 67 | 236 | 6.0 | 14.0 | 0.00 | 0.02 | 0.00 | 71 | 1014.6 |
| 20260904193918 | 67 | 316 | 6.0 | 15.0 | 0.00 | 0.02 | 0.00 | 70 | 1014.7 |
| 20260904193424 | 67 | 268 | 9.0 | 15.0 | 0.00 | 0.02 | 0.00 | 70 | 1014.7 |
| 20260904192930 | 67 | 229 | 5.0 | 13.0 | 0.00 | 0.02 | 0.00 | 71 | 1014.7 |
| 20260904192417 | 67 | 282 | 6.0 | 11.0 | 0.00 | 0.02 | 0.00 | 70 | 1014.7 |
| 20260904191923 | 66 | 292 | 6.0 | 13.0 | 0.00 | 0.02 | 0.00 | 71 | 1014.8 |
| 20260904191427 | 66 | 297 | 7.0 | 13.0 | 0.00 | 0.02 | 0.00 | 70 | 1014.8 |
| 20260904190931 | 66 | 244 | 5.0 | 13.0 | 0.00 | 0.02 | 0.00 | 71 | 1014.7 |
| 20260904190437 | 66 | 258 | 6.0 | 14.0 | 0.00 | 0.02 | 0.00 | 71 | 1014.8 |
| 20260904185935 | 66 | 290 | 7.0 | 14.0 | 0.00 | 0.02 | 0.00 | 71 | 1014.8 |
| 20260904185421 | 66 | 256 | 6.0 | 15.0 | 0.00 | 0.02 | 0.00 | 72 | 1014.9 |
| 20260904184928 | 65 | 270 | 6.0 | 13.0 | 0.00 | 0.02 | 0.00 | 71 | 1014.7 |
| 20260904184433 | 65 | 261 | 7.0 | 13.0 | 0.00 | 0.02 | 0.00 | 71 | 1014.7 |
| 20260904183918 | 65 | 275 | 7.0 | 13.0 | 0.00 | 0.02 | 0.00 | 71 | 1014.6 |
| 20260904183424 | 65 | 244 | 8.0 | 13.0 | 0.00 | 0.02 | 0.00 | 71 | 1014.6 |
| 20260904182924 | 65 | 283 | 5.0 | 16.0 | 0.00 | 0.02 | 0.00 | 72 | 1014.7 |
| 20260904182432 | 65 | 278 | 9.0 | 16.0 | 0.00 | 0.02 | 0.00 | 71 | 1014.6 |
| 20260904181918 | 65 | 278 | 7.0 | 14.0 | 0.00 | 0.02 | 0.00 | 72 | 1014.7 |
| 20260904181424 | 64 | 284 | 10.0 | 14.0 | 0.00 | 0.02 | 0.00 | 72 | 1014.7 |
| 20260904180928 | 65 | 295 | 7.0 | 13.0 | 0.00 | 0.02 | 0.00 | 73 | 1014.7 |
| 20260904180435 | 64 | 254 | 7.0 | 13.0 | 0.00 | 0.02 | 0.00 | 73 | 1014.6 |
| 20260904175919 | 64 | 275 | 6.0 | 12.0 | 0.00 | 0.02 | 0.00 | 74 | 1014.6 |
| 20260904175421 | 63 | 268 | 8.0 | 13.0 | 0.00 | 0.02 | 0.00 | 75 | 1014.5 |